KC5CAM-13 Weather Reports


time (UTC)temp
F
wind
direction
speed
knots
gust
knots
rain 1hr
in
rain 24hr
in
rain mn
in
humidity
%
barometer
mb
20260509134942 72 12 0.0 0.0 0.00 0.00 0.00 87 1011.9
20260509134439 72 352 0.9 1.7 0.00 0.00 0.00 88 1011.9
20260509133937 71 17 0.0 0.0 0.00 0.00 0.00 88 1011.6
20260509133433 71 333 0.0 0.0 0.00 0.00 0.00 89 1011.6
20260509132931 71 307 0.9 0.9 0.00 0.00 0.00 90 1011.5
20260509132429 70 355 0.0 0.9 0.00 0.00 0.00 90 1011.4
20260509131926 70 18 0.9 0.9 0.00 0.00 0.00 91 1011.7
20260509131423 70 342 0.0 0.9 0.00 0.00 0.00 91 1011.8
20260509130920 69 259 0.0 0.0 0.00 0.00 0.00 92 1011.6
20260509130415 69 327 0.0 0.9 0.00 0.00 0.00 92 1011.8
20260509125912 69 309 0.9 1.7 0.00 0.00 0.00 93 1011.8
20260509125409 69 290 0.0 0.0 0.00 0.00 0.00 93 1011.6
20260509124905 69 343 0.0 0.0 0.00 0.00 0.00 93 1011.4
20260509124402 69 318 0.9 1.7 0.00 0.00 0.00 93 1011.7
20260509123900 68 330 0.0 0.0 0.00 0.00 0.00 93 1011.5
20260509123357 68 40 0.9 0.9 0.00 0.00 0.00 94 1011.4
20260509122852 69 329 0.0 0.0 0.00 0.00 0.00 94 1011.6
20260509122349 68 333 0.0 0.0 0.00 0.00 0.00 94 1011.4
20260509121846 68 335 0.0 0.0 0.00 0.00 0.00 94 1011.5
20260509121343 68 330 0.0 0.0 0.00 0.00 0.00 94 1011.4
20260509120842 68 299 0.9 1.7 0.00 0.00 0.00 95 1011.5
20260509120339 68 330 0.0 0.0 0.00 0.00 0.00 95 1011.4
20260509115837 68 349 0.9 1.7 0.00 0.00 0.00 95 1011.1
20260509115334 68 343 0.0 0.0 0.00 0.00 0.00 95 1011.3
20260509114832 68 339 0.0 0.0 0.00 0.00 0.00 95 1011.1
20260509114330 68 327 0.0 0.0 0.00 0.00 0.00 95 1011.3
20260509113829 68 339 0.0 0.0 0.00 0.00 0.00 95 1011.0
20260509113326 68 305 0.0 0.0 0.00 0.00 0.00 95 1010.6
20260509112822 68 328 0.0 0.0 0.00 0.00 0.00 95 1010.3
20260509112320 68 344 0.0 0.0 0.00 0.00 0.00 95 1010.7
20260509111817 68 331 0.0 0.0 0.00 0.00 0.00 95 1010.7
20260509111313 68 342 0.0 0.0 0.00 0.00 0.00 95 1010.7
20260509110811 68 337 0.0 0.0 0.00 0.00 0.00 95 1010.6
20260509110307 67 318 0.0 0.0 0.00 0.00 0.00 95 1010.4
20260509105806 67 339 0.0 0.0 0.00 0.00 0.00 94 1010.0
20260509105306 67 332 0.0 0.0 0.00 0.00 0.00 94 1009.9
20260509104759 67 327 0.0 0.0 0.00 0.00 0.00 94 1010.0
20260509104256 67 337 0.0 0.0 0.00 0.00 0.00 94 1009.7
20260509103755 68 338 0.0 0.0 0.00 0.00 0.00 94 1009.8
20260509103251 68 322 0.0 0.0 0.00 0.00 0.00 94 1009.8
20260509102750 68 340 0.0 0.0 0.00 0.00 0.00 94 1009.7
20260509102247 68 339 0.0 0.0 0.00 0.00 0.00 93 1009.8
20260509101743 68 337 0.0 0.0 0.00 0.00 0.00 93 1009.7
20260509101239 68 321 0.9 0.9 0.00 0.00 0.00 93 1009.9
20260509100737 68 340 0.0 0.0 0.00 0.00 0.00 93 1009.7
20260509100234 69 355 0.0 0.0 0.00 0.00 0.00 93 1009.4
20260509095730 69 97 0.9 1.7 0.00 0.00 0.00 93 1009.2
20260509095228 69 270 0.0 0.9 0.00 0.00 0.00 93 1009.4
20260509094725 69 34 0.0 0.0 0.00 0.00 0.00 93 1009.0
20260509094221 69 72 0.0 0.0 0.00 0.00 0.00 93 1008.8
20260509093720 69 9 0.0 0.0 0.00 0.00 0.00 93 1008.7
20260509093216 69 351 0.0 0.9 0.00 0.00 0.00 92 1008.8
20260509092714 69 335 0.0 0.0 0.00 0.00 0.00 92 1009.1
20260509092213 69 1 0.0 0.0 0.00 0.00 0.00 92 1008.7
20260509091710 69 58 0.0 0.0 0.00 0.00 0.00 91 1008.8
20260509091206 69 74 0.0 0.9 0.00 0.00 0.00 91 1008.9
20260509090704 70 10 0.0 0.9 0.00 0.00 0.00 90 1008.8
20260509090201 70 173 1.7 4.3 0.00 0.00 0.00 89 1008.7
20260509085659 71 341 1.7 1.7 0.00 0.00 0.00 88 1008.6
20260509085155 71 0 0.9 1.7 0.00 0.00 0.00 87 1008.6
20260509084652 71 330 0.9 0.9 0.00 0.00 0.00 86 1008.6
20260509084149 71 4 0.0 0.0 0.00 0.00 0.00 85 1008.5
20260509083647 71 338 0.0 0.0 0.00 0.00 0.00 85 1008.5
20260509083143 71 335 0.0 0.0 0.00 0.00 0.00 85 1008.4
20260509082640 71 337 0.0 0.9 0.00 0.00 0.00 86 1008.4
20260509082137 71 345 2.6 2.6 0.00 0.00 0.00 86 1008.6
20260509081634 71 242 0.9 0.9 0.00 0.00 0.00 86 1007.4
20260509081131 71 131 2.6 2.6 0.00 0.00 0.00 87 1007.2
20260509080629 71 198 1.7 1.7 0.00 0.00 0.00 87 1007.4
20260509080127 71 162 1.7 2.6 0.00 0.00 0.00 87 1007.4
20260509075625 71 165 2.6 2.6 0.00 0.00 0.00 88 1007.3
20260509075122 71 192 7.0 8.7 0.00 0.00 0.00 88 1007.8
20260509074618 71 141 2.6 2.6 0.00 0.00 0.00 88 1008.2
20260509074115 71 199 4.3 6.1 0.00 0.00 0.00 89 1008.3
20260509073612 71 182 2.6 4.3 0.00 0.00 0.00 89 1008.6
20260509073108 70 125 2.6 2.6 0.00 0.00 0.00 89 1009.0
20260509072605 70 201 2.6 4.3 0.00 0.00 0.00 89 1009.1
20260509072102 70 152 3.5 4.3 0.00 0.00 0.00 89 1009.6
20260509071558 70 256 4.3 6.1 0.00 0.00 0.00 90 1009.6
20260509071056 70 137 2.6 4.3 0.00 0.00 0.00 90 1009.6
20260509070553 70 246 5.2 7.0 0.00 0.00 0.00 90 1009.6
20260509070049 70 171 4.3 6.1 0.00 0.00 0.00 91 1009.9
20260509065544 69 131 5.2 7.0 0.00 0.00 0.00 91 1009.9
20260509065041 69 162 2.6 2.6 0.00 0.00 0.00 91 1010.4
20260509064539 69 162 3.5 4.3 0.00 0.00 0.00 91 1010.1
20260509064037 69 202 3.5 5.2 0.00 0.00 0.00 90 1010.3
20260509063531 69 245 0.9 0.9 0.00 0.00 0.00 90 1010.5
20260509063029 69 279 1.7 4.3 0.00 0.00 0.00 90 1011.0
20260509062526 69 309 0.9 0.9 0.00 0.00 0.00 90 1010.9
20260509062024 69 197 1.7 2.6 0.00 0.00 0.00 90 1011.2
20260509061521 69 302 2.6 4.3 0.00 0.00 0.00 90 1011.3
20260509061018 69 202 0.9 1.7 0.00 0.00 0.00 90 1011.1
20260509060515 69 288 2.6 2.6 0.00 0.00 0.00 90 1011.3
20260509060011 69 226 0.0 0.9 0.00 0.00 0.00 90 1011.4
20260509055506 69 239 0.0 0.9 0.00 0.00 0.00 90 1011.4
20260509055003 69 194 0.9 0.9 0.00 0.00 0.00 90 1011.2
20260509054459 69 184 0.0 0.9 0.00 0.00 0.00 90 1011.0
20260509053958 69 223 0.9 0.9 0.00 0.00 0.00 89 1011.0
20260509053455 69 217 0.9 0.9 0.00 0.00 0.00 89 1011.0
20260509052952 69 313 0.0 0.9 0.00 0.00 0.00 89 1011.2
20260509052450 69 10 0.0 0.9 0.00 0.00 0.00 89 1011.1
20260509051948 69 46 0.9 0.9 0.00 0.00 0.00 89 1011.2
20260509051445 69 350 0.0 0.0 0.00 0.00 0.00 88 1011.4
20260509050942 69 164 1.7 1.7 0.00 0.00 0.00 88 1011.5
20260509050439 70 291 0.0 0.0 0.00 0.00 0.00 86 1012.1
20260509045935 71 337 0.0 0.0 0.00 0.12 0.12 86 1012.1
20260509045433 71 197 1.7 1.7 0.00 0.12 0.12 86 1012.4
20260509044929 71 1 0.9 0.9 0.00 0.12 0.12 86 1012.8
20260509044427 71 335 0.0 0.0 0.00 0.12 0.12 85 1012.7
20260509043924 71 341 0.0 0.0 0.00 0.12 0.12 85 1012.7
20260509043420 71 346 0.9 1.7 0.00 0.12 0.12 85 1012.7
20260509042916 71 329 0.9 1.7 0.00 0.12 0.12 85 1011.5
20260509042413 71 210 1.7 1.7 0.00 0.12 0.12 85 1011.0
20260509041909 71 216 0.9 0.9 0.00 0.12 0.12 85 1010.9
20260509041406 71 208 1.7 1.7 0.00 0.12 0.12 85 1011.2
20260509040904 72 132 0.9 0.9 0.00 0.12 0.12 84 1011.3
20260509040402 71 5 0.0 0.0 0.00 0.12 0.12 84 1011.2
20260509035858 71 17 0.9 0.9 0.00 0.12 0.12 84 1011.2
20260509035355 71 130 0.9 0.9 0.00 0.12 0.12 84 1010.9
20260509034852 71 142 1.7 2.6 0.00 0.12 0.12 84 1010.2
20260509034349 71 171 1.7 2.6 0.00 0.12 0.12 85 1010.2
20260509033846 71 161 0.9 2.6 0.00 0.12 0.12 85 1010.1
20260509033344 71 137 1.7 2.6 0.00 0.12 0.12 85 1010.2
20260509032840 71 123 0.0 0.0 0.00 0.12 0.12 85 1010.3
20260509032337 71 148 2.6 2.6 0.00 0.12 0.12 84 1009.9
20260509031836 71 157 2.6 2.6 0.00 0.12 0.12 84 1010.0
20260509031332 71 134 2.6 4.3 0.00 0.12 0.12 84 1010.4
20260509030830 71 131 3.5 5.2 0.00 0.12 0.12 84 1010.5
20260509030328 72 107 0.9 0.9 0.00 0.12 0.12 83 1011.2
20260509025824 72 339 0.0 0.0 0.00 0.12 0.12 83 1011.7
20260509025320 72 352 0.0 0.0 0.00 0.12 0.12 83 1011.5
20260509024815 72 330 0.0 0.9 0.00 0.12 0.12 83 1011.4
20260509024312 72 349 0.0 0.0 0.00 0.12 0.12 83 1010.7
20260509023809 72 337 0.9 0.9 0.00 0.12 0.12 83 1010.6
20260509023306 72 103 0.9 1.7 0.00 0.12 0.12 83 1010.3
20260509022802 72 43 0.0 0.0 0.00 0.12 0.12 83 1010.4
20260509022300 72 129 1.7 1.7 0.00 0.12 0.12 83 1009.8
20260509021757 72 145 2.6 2.6 0.00 0.12 0.12 83 1009.5
20260509021254 72 146 2.6 2.6 0.00 0.12 0.12 82 1009.2
20260509020752 72 162 2.6 2.6 0.00 0.12 0.12 82 1009.0
20260509020249 72 140 4.3 6.1 0.00 0.12 0.12 82 1008.9
20260509015747 72 166 2.6 2.6 0.00 0.12 0.12 82 1009.0
20260509015245 72 163 2.6 4.3 0.00 0.12 0.12 82 1008.9
20260509014741 72 141 3.5 5.2 0.00 0.12 0.12 81 1009.1
20260509014238 72 166 1.7 1.7 0.00 0.12 0.12 81 1008.8
20260509013735 72 174 4.3 5.2 0.00 0.12 0.12 80 1008.9
20260509013230 73 164 3.5 4.3 0.00 0.12 0.12 80 1008.7
20260509012727 73 190 2.6 4.3 0.00 0.12 0.12 79 1008.9
20260509012224 73 208 3.5 5.2 0.00 0.12 0.12 79 1008.9
20260509011721 73 168 3.5 4.3 0.00 0.12 0.12 78 1008.9
20260509011219 73 175 3.5 4.3 0.00 0.12 0.12 78 1009.0
20260509010717 73 154 2.6 2.6 0.00 0.12 0.12 77 1009.4
20260509010212 74 114 1.7 1.7 0.00 0.12 0.12 77 1009.4
20260509005710 74 182 1.7 1.7 0.00 0.12 0.12 77 1009.3
20260509005207 74 195 1.7 1.7 0.00 0.12 0.12 77 1009.4
20260509004702 74 150 2.6 2.6 0.00 0.12 0.12 77 1009.4
20260509004200 74 171 2.6 4.3 0.00 0.12 0.12 76 1009.2
20260509003658 74 129 2.6 4.3 0.00 0.12 0.12 76 1009.2
20260509003155 74 131 3.5 4.3 0.00 0.12 0.12 76 1009.0
20260509002652 74 172 2.6 2.6 0.00 0.12 0.12 76 1008.8
20260509002150 75 175 2.6 2.6 0.00 0.12 0.12 76 1008.9
20260509001647 75 201 4.3 5.2 0.00 0.12 0.12 75 1008.8
20260509001142 75 145 1.7 2.6 0.00 0.12 0.12 75 1008.9
20260509000641 75 111 5.2 7.0 0.00 0.12 0.12 75 1008.6
20260509000138 75 143 4.3 6.1 0.00 0.12 0.12 74 1008.7
20260508235635 76 157 3.5 4.3 0.00 0.12 0.12 73 1008.5
20260508235131 75 140 3.5 5.2 0.00 0.12 0.12 74 1008.7
20260508234629 75 141 3.5 5.2 0.00 0.12 0.12 73 1008.9
20260508234125 76 181 5.2 7.0 0.00 0.12 0.12 72 1008.9
20260508233625 76 155 2.6 2.6 0.00 0.12 0.12 72 1008.9
20260508233122 76 190 5.2 7.0 0.00 0.12 0.12 71 1009.1
20260508232619 77 170 6.1 6.1 0.00 0.12 0.12 71 1009.1
20260508232115 77 207 4.3 5.2 0.00 0.12 0.12 71 1009.0
20260508231613 77 131 3.5 4.3 0.00 0.12 0.12 71 1009.2
20260508231110 77 146 3.5 4.3 0.00 0.12 0.12 70 1009.2
20260508230606 77 169 3.5 6.1 0.00 0.12 0.12 70 1008.9
20260508225601 77 203 4.3 6.1 0.00 0.12 0.12 70 1009.1
20260508225057 77 181 4.3 6.1 0.00 0.12 0.12 69 1009.1
20260508224555 77 296 3.5 4.3 0.00 0.12 0.12 69 1009.2
20260508224052 77 92 2.6 4.3 0.00 0.12 0.12 68 1008.9
20260508223550 77 139 4.3 6.1 0.00 0.12 0.12 69 1009.1
20260508223047 77 174 5.2 7.0 0.00 0.12 0.12 68 1009.2
20260508222544 78 200 2.6 4.3 0.00 0.12 0.12 68 1009.0
20260508222041 77 207 3.5 4.3 0.00 0.12 0.12 69 1009.2
20260508221537 77 192 3.5 5.2 0.00 0.12 0.12 69 1009.0
20260508221033 78 157 3.5 4.3 0.00 0.12 0.12 69 1009.3
20260508220530 78 141 2.6 4.3 0.00 0.12 0.12 68 1009.1
20260508220026 78 118 1.7 2.6 0.00 0.12 0.12 68 1009.2
20260508215523 77 157 3.5 4.3 0.00 0.12 0.12 68 1009.2
20260508215020 78 180 1.7 2.6 0.00 0.12 0.12 68 1009.3
20260508214518 78 202 2.6 4.3 0.00 0.12 0.12 67 1009.5
20260508214014 79 178 4.3 6.1 0.00 0.12 0.12 68 1009.4
20260508213511 78 175 5.2 6.1 0.00 0.12 0.12 67 1009.4
20260508213007 79 175 3.5 5.2 0.00 0.12 0.12 66 1009.4
20260508212503 79 136 3.5 5.2 0.00 0.12 0.12 67 1009.4
20260508212000 78 119 3.5 4.3 0.00 0.12 0.12 69 1009.4
20260508211455 78 141 2.6 4.3 0.00 0.12 0.12 70 1009.5
20260508210952 78 161 5.2 7.0 0.00 0.12 0.12 67 1009.5
20260508210449 77 118 2.6 4.3 0.00 0.12 0.12 68 1009.6
20260508205945 77 183 1.7 1.7 0.00 0.12 0.12 69 1009.5
20260508205442 77 179 4.3 6.1 0.00 0.12 0.12 68 1009.8
20260508204938 77 94 3.5 5.2 0.00 0.12 0.12 67 1009.8
20260508204436 75 168 5.2 6.1 0.00 0.12 0.12 69 1010.3
20260508203931 76 119 4.3 5.2 0.00 0.12 0.12 70 1010.4
20260508203428 77 170 6.1 7.8 0.00 0.12 0.12 69 1010.4
20260508202923 78 140 3.5 4.3 0.00 0.12 0.12 68 1010.6
20260508202421 78 133 4.3 5.2 0.00 0.12 0.12 69 1010.5
20260508201918 78 180 3.5 5.2 0.00 0.12 0.12 68 1010.7
20260508201415 77 193 2.6 5.2 0.00 0.12 0.12 70 1011.2
20260508200911 78 198 4.3 7.0 0.00 0.12 0.12 67 1011.1
20260508200408 78 97 1.7 4.3 0.00 0.12 0.12 68 1010.7
20260508195903 78 192 2.6 4.3 0.00 0.12 0.12 69 1011.2
20260508195401 78 150 2.6 2.6 0.00 0.12 0.12 68 1011.3
20260508194857 77 147 2.6 2.6 0.00 0.12 0.12 68 1011.5
20260508194354 78 131 4.3 6.1 0.00 0.12 0.12 68 1011.2
20260508193851 77 182 4.3 5.2 0.00 0.12 0.12 68 1011.3
20260508193348 77 159 4.3 6.1 0.00 0.12 0.12 69 1011.4
20260508192844 77 145 1.7 1.7 0.00 0.12 0.12 70 1011.4
20260508192341 77 202 3.5 5.2 0.00 0.12 0.12 68 1011.5
20260508191838 76 152 2.6 5.2 0.00 0.12 0.12 70 1011.6
20260508191336 77 160 1.7 1.7 0.00 0.12 0.12 70 1011.5
20260508190833 77 154 3.5 5.2 0.00 0.12 0.12 67 1011.7
20260508190329 77 161 0.9 0.9 0.00 0.12 0.12 70 1011.4
20260508185825 76 169 3.5 5.2 0.00 0.12 0.12 68 1011.7
20260508185323 76 181 2.6 2.6 0.00 0.12 0.12 70 1011.9
20260508184820 77 222 0.9 1.7 0.00 0.12 0.12 68 1011.7
20260508184317 76 168 1.7 4.3 0.00 0.12 0.12 70 1011.8
20260508183814 77 178 1.7 1.7 0.00 0.12 0.12 67 1012.1
20260508183311 77 166 3.5 5.2 0.00 0.12 0.12 67 1011.7
20260508182806 76 122 2.6 4.3 0.00 0.12 0.12 70 1012.1
20260508182306 77 197 2.6 4.3 0.00 0.12 0.12 69 1012.2
20260508181759 76 125 2.6 2.6 0.00 0.12 0.12 69 1012.1
20260508181256 75 147 1.7 4.3 0.00 0.12 0.12 71 1012.1
20260508180753 76 170 1.7 2.6 0.00 0.12 0.12 70 1012.6
20260508180250 75 233 2.6 4.3 0.00 0.12 0.12 70 1012.5
20260508175746 75 181 4.3 6.1 0.00 0.12 0.12 67 1012.6
20260508175243 75 101 1.7 1.7 0.00 0.12 0.12 69 1012.8
20260508174741 74 186 2.6 4.3 0.00 0.12 0.12 69 1012.9
20260508174238 74 171 4.3 5.2 0.00 0.12 0.12 68 1013.0
20260508173734 74 274 1.7 2.6 0.00 0.12 0.12 70 1013.1
20260508173230 74 149 2.6 2.6 0.00 0.12 0.12 70 1012.7
20260508172727 73 194 2.6 4.3 0.00 0.12 0.12 73 1012.9
20260508172224 73 237 1.7 2.6 0.00 0.12 0.12 72 1013.3
20260508171721 73 144 2.6 2.6 0.00 0.12 0.12 73 1013.3
20260508171217 73 205 2.6 2.6 0.00 0.12 0.12 72 1013.3
20260508170714 72 132 2.6 2.6 0.00 0.12 0.12 72 1013.4
20260508170212 72 115 3.5 4.3 0.00 0.12 0.12 73 1013.4
20260508165709 71 143 4.3 5.2 0.00 0.12 0.12 73 1013.5
20260508165206 71 177 0.9 1.7 0.00 0.12 0.12 74 1013.7
20260508164702 71 123 3.5 4.3 0.00 0.12 0.12 73 1013.7
20260508164159 71 91 4.3 6.1 0.00 0.12 0.12 71 1014.0
20260508163657 71 213 2.6 5.2 0.00 0.12 0.12 74 1014.0
20260508163154 70 200 3.5 5.2 0.00 0.12 0.12 73 1014.2
20260508162649 69 179 3.5 4.3 0.00 0.12 0.12 74 1014.0
20260508162147 70 109 1.7 1.7 0.00 0.12 0.12 73 1014.3
20260508161643 69 178 2.6 2.6 0.00 0.12 0.12 77 1014.4
20260508161141 69 146 4.3 5.2 0.00 0.12 0.12 77 1014.3
20260508160639 69 145 2.6 4.3 0.00 0.12 0.12 77 1014.4
20260508160136 68 151 2.6 4.3 0.00 0.12 0.12 77 1014.4
20260508155634 67 173 1.7 2.6 0.00 0.12 0.12 79 1014.6
20260508155130 68 155 3.5 5.2 0.00 0.12 0.12 76 1014.6
20260508154627 68 194 4.3 5.2 0.00 0.12 0.12 79 1014.5
20260508154124 67 163 1.7 2.6 0.00 0.12 0.12 80 1014.7
20260508153621 67 153 2.6 2.6 0.00 0.12 0.12 80 1014.9
20260508153118 67 115 1.7 2.6 0.00 0.12 0.12 80 1015.0
20260508152614 66 124 0.9 0.9 0.00 0.12 0.12 83 1014.9
20260508152109 66 160 1.7 1.7 0.00 0.12 0.12 84 1015.0
20260508151607 66 167 2.6 4.3 0.00 0.12 0.12 83 1015.0
20260508151104 65 172 1.7 1.7 0.00 0.12 0.12 84 1015.1
20260508150601 65 164 0.9 0.9 0.00 0.12 0.12 84 1015.0
20260508150057 64 154 2.6 2.6 0.00 0.12 0.12 84 1015.0
20260508145553 64 187 4.3 6.1 0.00 0.12 0.12 84 1015.2
20260508145050 64 150 0.9 1.7 0.00 0.12 0.12 85 1015.2
20260508144548 64 186 2.6 2.6 0.00 0.12 0.12 85 1015.0
20260508144045 64 173 2.6 2.6 0.00 0.12 0.12 84 1015.1
20260508143542 64 113 1.7 1.7 0.00 0.12 0.12 86 1014.9
20260508143038 64 138 1.7 2.6 0.00 0.12 0.12 87 1015.0
20260508142536 64 168 1.7 1.7 0.00 0.12 0.12 87 1015.0
20260508142032 63 169 2.6 2.6 0.12 0.12 0.12 86 1015.4
20260508141528 63 131 2.6 2.6 0.12 0.11 0.11 86 1015.5
20260508141027 64 133 0.9 0.9 0.07 0.10 0.10 87 1015.4
20260508140524 64 227 2.6 2.6 0.00 0.09 0.09 85 1015.7
20260508140020 64 277 0.0 0.0 0.00 0.09 0.09 84 1015.6
20260508135515 64 359 0.0 0.0 0.00 0.09 0.09 84 1015.6